Regional Weather Roundup
Issued by NWS

Home | Current Version | Previous Version | Text Only | Print | Product List | Glossary Off
Versions: 1 2 3 4 5 6 7 8 9 10 11 12 13 14 15 16 17 18 19 20 21 22 23 24 25 26 27 28 29 30 31 32 33 34 35 36 37 38 39 40 41 42 43 44 45 46 47 48

000
ASUS45 KSLC 140010
RWRUT

UTAH REGIONAL WEATHER ROUNDUP
NATIONAL WEATHER SERVICE SALT LAKE CITY UT
600 PM MDT SAT SEP 13 2014

UTZ001>011-023>025-140100-

NORTHERN UTAH

CITY           SKY/WX    TMP DP  RH WIND       PRES   REMARKS
HILL AFB       MOSUNNY   80  36  20 CALM      30.03F
LOGAN          SUNNY     80  35  19 E3        30.01S
OGDEN          MOSUNNY   81  32  17 SW3       30.01F
PROVO AIRPORT  PTSUNNY   81  45  28 VRB3      30.02F
SALT LAKE CITY PTSUNNY   83  36  18 N5        29.99F
VERNAL         SUNNY     73  37  27 SW5       30.08F
WENDOVER       MOSUNNY   75  25  15 CALM      29.99F
HEBER CITY     MOSUNNY   77  32  19 SW7       30.08F
WEST JORDAN    SUNNY     81  39  22 NW7       30.03S

$$

UTZ012>022-026-027-140100-

SOUTHERN UTAH

CITY           SKY/WX    TMP DP  RH WIND       PRES   REMARKS
BRYCE CANYON   PTSUNNY   73  35  25 W10G17    30.24S
CEDAR CITY     SUNNY     82  31  15 SW9       30.07F
MILFORD        SUNNY     84  27  12 SE10      30.01F
MOAB/CYNLANDS  SUNNY     85  34  16 SE9       30.00F
PRICE          MOSUNNY   78  29  16 SE8       30.12S
ST GEORGE      PTCLDY    97  37  12 W9        29.89S HX  92

$$

REGIONAL REPORTS     COLORADO/ARIZONA

CITY           SKY/WX    TMP DP  RH WIND       PRES   REMARKS
CRAIG, CO        N/A     74  31  20 W12       30.15S
GRAND JUNCTION SUNNY     80  37  21 NW5       30.06F
RIFLE          SUNNY     79  30  16 W8        30.11S
MONTROSE       SUNNY     80  30  16 N6        30.15F
CORTEZ         SUNNY     80  30  16 VRB6      30.16S
PAGE, AZ       SUNNY     90  36  14 NE8       30.00S
GRAND CANYON   MOSUNNY   80  36  20 VRB6      30.18S
KINGMAN        MOSUNNY   92  44  19 W8        29.94S
FLAGSTAFF      PTSUNNY   68  47  46 SW6       30.23F

$$

REGIONAL REPORTS    NEVADA/IDAHO/WYOMING

CITY           SKY/WX    TMP DP  RH WIND       PRES   REMARKS
LAS VEGAS, NV  MOSUNNY  100  33   9 VRB3      29.77F HX  94
ELY            MOSUNNY   81  21  11 SW14G20   30.10F
ELKO           PTSUNNY   84  20   9 W9        30.00S
POCATELLO, ID  SUNNY     82  29  14 NW7       29.98F
BURLEY         MOSUNNY   82  33  17 CALM      29.94F
EVANSTON, WY   MOSUNNY   72  22  15 W17       30.18S
ROCK SPRINGS   MOSUNNY   75  19  12 W18G32    30.13S

$$



USA.gov is the U.S. government's official web portal to all federal, state and local government web resources and services.